Change the Weather History Date:

Wednesday, June 4, 2014

  Actual Average Record
Temperature  
Mean Temperature 65 °F 61 °F  
Max Temperature 77 °F 74 °F 86 °F (2005)
Min Temperature 52 °F 49 °F 35 °F (2002)
Degree Days  
Heating Degree Days 0 5  
Month to date heating degree days 6 21  
Since 1 June heating degree days 6 21  
Since 1 July heating degree days 7903 7607  
Cooling Degree Days 0 1  
Month to date cooling degree days 7 4  
Year to date cooling degree days 27 16  
Since 1 June cooling degree days 7 4  
Growing Degree Days 15 (Base 50)    
Moisture  
Dew Point 54 °F    
Average Humidity 71    
Maximum Humidity 100    
Minimum Humidity 41    
Precipitation  
Precipitation 0.00 in 0.12 in 0.92 in (1972)
Month to date precipitation 0.29 0.47  
Year to date precipitation 13.40 14.96  
Sea Level Pressure  
Sea Level Pressure 29.79 in    
Wind  
Wind Speed 5 mph (WSW)    
Max Wind Speed 16 mph    
Max Gust Speed 22 mph    
Visibility 10 miles    
Events      
T = Trace of Precipitation, MM = Missing Value Source: NWS Daily Summary

Daily Weather History Graph

Daily Weather History Graph

Search for Another Location

Airport or City:

Trip Planner

Search our weather history database for the weather conditions in past years. The results will help you decide how hot, cold, wet, or windy it might be!

Date:

Astronomy

Jun. 04, 2014 Rise Set
Actual Time 5:15 AM EDT 8:30 PM EDT
Civil Twilight 4:40 AM EDT 9:05 PM EDT
Nautical Twilight 3:55 AM EDT 9:50 PM EDT
Astronomical Twilight 3:00 AM EDT 10:46 PM EDT
Moon 11:40 AM EDT (6/4) 12:20 AM EDT (6/4)
Length of Visible Light 16h 24m
Length of Day
15h 14m
Waxing Crescent, 39% of the Moon is Illuminated
Jun 4
Waxing Crescent
Jun 5
First Quarter
Jun 13
Full
Jun 19
Last Quarter
Jun 27
New

Hourly Weather History & Observations

Time (EDT) Temp. Dew Point Humidity Pressure Visibility Wind Dir Wind Speed Gust Speed Precip Events Conditions
12:53 AM 62.6 °F 62.6 °F 100% 29.80 in 10.0 mi South 4.6 mph - N/A   Scattered Clouds
1:53 AM 63.0 °F 62.1 °F 97% 29.78 in 10.0 mi SSW 5.8 mph - N/A   Partly Cloudy
2:53 AM 62.6 °F 62.6 °F 100% 29.80 in 10.0 mi Calm Calm - N/A   Mostly Cloudy
3:53 AM 63.0 °F 61.0 °F 93% 29.81 in 10.0 mi SW 5.8 mph - N/A   Mostly Cloudy
4:53 AM 63.0 °F 62.1 °F 97% 29.82 in 10.0 mi South 3.5 mph - N/A   Mostly Cloudy
5:53 AM 61.0 °F 59.0 °F 93% 29.83 in 10.0 mi Calm Calm - N/A   Partly Cloudy
6:53 AM 63.0 °F 60.1 °F 90% 29.83 in 10.0 mi WNW 4.6 mph - N/A   Clear
7:53 AM 64.9 °F 57.0 °F 75% 29.85 in 10.0 mi North 9.2 mph - N/A   Clear
8:53 AM 66.0 °F 52.0 °F 60% 29.87 in 10.0 mi NNW 8.1 mph - N/A   Clear
9:53 AM 69.1 °F 50.0 °F 51% 29.85 in 10.0 mi WNW 8.1 mph - N/A   Clear
10:53 AM 72.0 °F 50.0 °F 46% 29.84 in 10.0 mi Calm Calm - N/A   Clear
11:53 AM 73.0 °F 51.1 °F 46% 29.81 in 10.0 mi Variable 5.8 mph - N/A   Clear
12:53 PM 73.9 °F 48.9 °F 41% 29.79 in 10.0 mi West 5.8 mph - N/A   Scattered Clouds
1:53 PM 75.9 °F 50.0 °F 40% 29.77 in 10.0 mi Variable 6.9 mph - N/A   Clear
2:53 PM 75.9 °F 51.1 °F 42% 29.76 in 10.0 mi West 6.9 mph 17.3 mph N/A   Partly Cloudy
3:53 PM 73.0 °F 50.0 °F 44% 29.76 in 10.0 mi West 10.4 mph 20.7 mph N/A   Clear
4:53 PM 72.0 °F 51.1 °F 48% 29.75 in 10.0 mi WSW 11.5 mph 19.6 mph N/A   Clear
5:53 PM 72.0 °F 52.0 °F 49% 29.75 in 10.0 mi WSW 8.1 mph - N/A   Clear
6:53 PM 71.1 °F 51.1 °F 49% 29.75 in 10.0 mi WSW 6.9 mph - N/A   Partly Cloudy
7:53 PM 69.1 °F 48.9 °F 49% 29.75 in 10.0 mi West 4.6 mph - N/A   Clear
8:53 PM 63.0 °F 52.0 °F 67% 29.76 in 10.0 mi Calm Calm - N/A   Clear
9:53 PM 59.0 °F 52.0 °F 78% 29.77 in 10.0 mi Calm Calm - N/A   Clear
10:53 PM 55.4 °F 53.6 °F 94% 29.76 in 10.0 mi West 3.5 mph - N/A   Clear
11:53 PM 55.9 °F 51.1 °F 84% 29.75 in 10.0 mi Calm Calm - N/A   Clear